Previsão horária em Alma

Hoje, 25 Junho, Sexta-feira

Tempo Temperatura Precipitação Vento Pressão Humidade
00:00 +21°C° 0 mm 5 m/s 752 mmHg 53%
01:00 +20°C° 0 mm 5 m/s 752 mmHg 56%
02:00 +20°C° 0 mm 4 m/s 752 mmHg 59%
03:00 +19°C° 0 mm 4 m/s 752 mmHg 62%
04:00 +19°C° 0 mm 4 m/s 752 mmHg 65%
05:00 +18°C° 0.3 mm 4 m/s 752 mmHg 68%
06:00 +18°C° 0.3 mm 4 m/s 753 mmHg 72%
07:00 +17°C° 0.3 mm 4 m/s 753 mmHg 75%
08:00 +17°C° 0.1 mm 4 m/s 753 mmHg 77%
09:00 +17°C° 0.1 mm 4 m/s 753 mmHg 78%
10:00 +16°C° 0.1 mm 5 m/s 752 mmHg 80%
11:00 +17°C° 1 mm 4 m/s 752 mmHg 83%
12:00 +17°C° 1 mm 4 m/s 752 mmHg 87%
13:00 +15°C° 1 mm 4 m/s 752 mmHg 90%
14:00 +15°C° 1.8 mm 4 m/s 752 mmHg 91%
15:00 +15°C° 1.8 mm 4 m/s 752 mmHg 91%
16:00 +15°C° 1.8 mm 4 m/s 751 mmHg 91%
17:00 +16°C° 1.1 mm 3 m/s 752 mmHg 92%
18:00 +16°C° 1.1 mm 3 m/s 752 mmHg 93%
19:00 +16°C° 1.1 mm 2 m/s 752 mmHg 94%
20:00 +16°C° 0.1 mm 2 m/s 752 mmHg 93%
21:00 +17°C° 0.1 mm 2 m/s 752 mmHg 93%
22:00 +17°C° 0.1 mm 2 m/s 752 mmHg 93%
23:00 +17°C° 0.5 mm 2 m/s 752 mmHg 93%

Amanhã, 26 Junho, Sábado

Tempo Temperatura Precipitação Vento Pressão Humidade
00:00 +17°C° 0.5 mm 2 m/s 751 mmHg 93%
01:00 +17°C° 0.5 mm 2 m/s 751 mmHg 93%
02:00 +17°C° 0.3 mm 2 m/s 751 mmHg 93%
03:00 +17°C° 0.3 mm 2 m/s 751 mmHg 92%
04:00 +16°C° 0.3 mm 1 m/s 751 mmHg 92%
05:00 +16°C° 0.6 mm 2 m/s 751 mmHg 93%
06:00 +16°C° 0.6 mm 2 m/s 751 mmHg 94%
07:00 +16°C° 0.6 mm 2 m/s 751 mmHg 95%
08:00 +17°C° 0.1 mm 2 m/s 751 mmHg 92%
09:00 +18°C° 0.1 mm 2 m/s 750 mmHg 89%
10:00 +20°C° 0.1 mm 2 m/s 750 mmHg 86%
11:00 +20°C° 0 mm 3 m/s 750 mmHg 83%
12:00 +20°C° 0 mm 3 m/s 750 mmHg 79%
13:00 +20°C° 0 mm 3 m/s 749 mmHg 75%
14:00 +20°C° 0.1 mm 2 m/s 749 mmHg 78%
15:00 +19°C° 0.1 mm 2 m/s 748 mmHg 80%
16:00 +19°C° 0.1 mm 2 m/s 748 mmHg 83%
17:00 +18°C° 0.9 mm 2 m/s 748 mmHg 88%
18:00 +18°C° 0.9 mm 2 m/s 747 mmHg 93%
19:00 +18°C° 0.9 mm 2 m/s 747 mmHg 98%
20:00 +18°C° 1.5 mm 2 m/s 747 mmHg 98%
21:00 +19°C° 1.5 mm 1 m/s 746 mmHg 98%
22:00 +19°C° 1.5 mm 1 m/s 746 mmHg 99%
23:00 +19°C° 0.3 mm 1 m/s 746 mmHg 99%

Depois de amanhã, 27 Junho, Domingo

Tempo Temperatura Precipitação Vento Pressão Humidade
00:00 +19°C° 0.3 mm 1 m/s 746 mmHg 99%
01:00 +19°C° 0.3 mm 1 m/s 746 mmHg 99%
02:00 +19°C° 0.1 mm 1 m/s 746 mmHg 99%
03:00 +19°C° 0.1 mm 1 m/s 746 mmHg 99%
04:00 +19°C° 0.1 mm 1 m/s 746 mmHg 99%
05:00 +19°C° 0 mm 1 m/s 747 mmHg 98%
06:00 +20°C° 0 mm 1 m/s 747 mmHg 97%
07:00 +20°C° 0 mm 1 m/s 747 mmHg 96%
08:00 +21°C° 0 mm 1 m/s 748 mmHg 89%
09:00 +22°C° 0 mm 1 m/s 748 mmHg 83%
10:00 +23°C° 0 mm 2 m/s 748 mmHg 77%
11:00 +24°C° 0.1 mm 1 m/s 748 mmHg 74%
12:00 +25°C° 0.1 mm 1 m/s 748 mmHg 71%
13:00 +26°C° 0.1 mm 1 m/s 747 mmHg 68%
14:00 +25°C° 0.3 mm 1 m/s 747 mmHg 75%
15:00 +24°C° 0.3 mm 1 m/s 747 mmHg 83%
16:00 +23°C° 0.3 mm 2 m/s 747 mmHg 90%
17:00 +21°C° 0.5 mm 2 m/s 747 mmHg 92%
18:00 +20°C° 0.5 mm 2 m/s 747 mmHg 94%
19:00 +20°C° 0.5 mm 2 m/s 747 mmHg 96%
20:00 +19°C° 0 mm 2 m/s 747 mmHg 97%
21:00 +19°C° 0 mm 2 m/s 747 mmHg 97%
22:00 +19°C° 0 mm 2 m/s 747 mmHg 97%
23:00 +19°C° 0 mm 2 m/s 747 mmHg 97%

28 Junho, Segunda-feira

Tempo Temperatura Precipitação Vento Pressão Humidade
00:00 +18°C° 0 mm 2 m/s 747 mmHg 97%
01:00 +18°C° 0 mm 2 m/s 746 mmHg 98%
02:00 +18°C° 0.7 mm 2 m/s 746 mmHg 98%
03:00 +19°C° 0.7 mm 2 m/s 746 mmHg 98%
04:00 +19°C° 0.7 mm 2 m/s 745 mmHg 98%
05:00 +20°C° 0.4 mm 2 m/s 745 mmHg 98%
06:00 +20°C° 0.4 mm 2 m/s 745 mmHg 97%
07:00 +21°C° 0.4 mm 2 m/s 745 mmHg 97%
08:00 +22°C° 0.4 mm 3 m/s 745 mmHg 91%
09:00 +25°C° 0.4 mm 3 m/s 745 mmHg 85%
10:00 +27°C° 0.4 mm 4 m/s 745 mmHg 79%
11:00 +27°C° 0.5 mm 4 m/s 745 mmHg 75%
12:00 +28°C° 0.5 mm 4 m/s 744 mmHg 70%
13:00 +28°C° 0.5 mm 4 m/s 744 mmHg 65%
14:00 +27°C° 0.3 mm 5 m/s 745 mmHg 69%
15:00 +26°C° 0.3 mm 6 m/s 745 mmHg 73%
16:00 +24°C° 0.3 mm 7 m/s 745 mmHg 77%
17:00 +22°C° 0.2 mm 6 m/s 746 mmHg 82%
18:00 +20°C° 0.2 mm 6 m/s 747 mmHg 87%
19:00 +17°C° 0.2 mm 5 m/s 748 mmHg 92%
20:00 +17°C° 0 mm 4 m/s 748 mmHg 93%
21:00 +15°C° 0 mm 4 m/s 749 mmHg 94%
22:00 +14°C° 0 mm 3 m/s 749 mmHg 96%
23:00 +14°C° 0 mm 3 m/s 750 mmHg 96%

29 Junho, Terça-feira

Tempo Temperatura Precipitação Vento Pressão Humidade
00:00 +15°C° 0 mm 2 m/s 750 mmHg 97%
01:00 +14°C° 0 mm 2 m/s 750 mmHg 97%
02:00 +14°C° 0 mm 2 m/s 750 mmHg 96%
03:00 +13°C° 0 mm 3 m/s 750 mmHg 95%
04:00 +12°C° 0 mm 3 m/s 751 mmHg 93%
05:00 +13°C° 0 mm 3 m/s 751 mmHg 85%
06:00 +14°C° 0 mm 3 m/s 752 mmHg 77%
07:00 +15°C° 0 mm 4 m/s 752 mmHg 68%
08:00 +18°C° 0 mm 4 m/s 752 mmHg 61%
09:00 +19°C° 0 mm 4 m/s 752 mmHg 54%
10:00 +21°C° 0 mm 3 m/s 752 mmHg 47%
11:00 +22°C° 0 mm 3 m/s 752 mmHg 45%
12:00 +23°C° 0 mm 4 m/s 752 mmHg 44%
13:00 +25°C° 0 mm 4 m/s 751 mmHg 42%
14:00 +25°C° 0 mm 3 m/s 751 mmHg 43%
15:00 +25°C° 0 mm 3 m/s 751 mmHg 43%
16:00 +26°C° 0 mm 3 m/s 751 mmHg 43%
17:00 +24°C° 0 mm 2 m/s 750 mmHg 50%
18:00 +23°C° 0 mm 1 m/s 750 mmHg 58%
19:00 +21°C° 0 mm 1 m/s 750 mmHg 65%
20:00 +20°C° 0 mm 1 m/s 750 mmHg 66%
21:00 +19°C° 0 mm 1 m/s 750 mmHg 68%
22:00 +19°C° 0 mm 1 m/s 750 mmHg 70%
23:00 +18°C° 0 mm 1 m/s 750 mmHg 73%

30 Junho, Quarta-feira

Tempo Temperatura Precipitação Vento Pressão Humidade
00:00 +16°C° 0 mm 1 m/s 750 mmHg 77%
01:00 +15°C° 0 mm 1 m/s 750 mmHg 81%
02:00 +14°C° 0 mm 1 m/s 750 mmHg 83%
03:00 +14°C° 0 mm 1 m/s 750 mmHg 86%
04:00 +13°C° 0 mm 1 m/s 750 mmHg 88%
05:00 +15°C° 0 mm 1 m/s 750 mmHg 82%
06:00 +16°C° 0 mm 1 m/s 750 mmHg 76%
07:00 +19°C° 0 mm 1 m/s 750 mmHg 69%
08:00 +20°C° 0 mm 1 m/s 750 mmHg 63%
09:00 +22°C° 0 mm 1 m/s 750 mmHg 57%
10:00 +23°C° 0 mm 1 m/s 750 mmHg 51%
11:00 +25°C° 0 mm 1 m/s 749 mmHg 48%
12:00 +26°C° 0 mm 1 m/s 749 mmHg 44%
13:00 +27°C° 0 mm 1 m/s 748 mmHg 41%
14:00 +27°C° 0 mm 1 m/s 747 mmHg 45%
15:00 +27°C° 0 mm 2 m/s 747 mmHg 49%
16:00 +27°C° 0 mm 2 m/s 746 mmHg 53%
17:00 +25°C° 0.1 mm 2 m/s 747 mmHg 62%
18:00 +22°C° 0.1 mm 3 m/s 747 mmHg 72%
19:00 +19°C° 0.1 mm 3 m/s 747 mmHg 82%
20:00 +19°C° 0 mm 3 m/s 746 mmHg 84%
21:00 +19°C° 0 mm 2 m/s 746 mmHg 86%
22:00 +18°C° 0 mm 2 m/s 746 mmHg 88%
23:00 +18°C° 0.2 mm 2 m/s 745 mmHg 90%
Mostrar mais